OBJECT C, 60237

Orbit data source: Space-Track

You're viewing an Uncataloged Satellite

Recently launched and/or uncataloged satellites may have evolving metadata. Metadata may include but not limited to: Owner, Maufacturer, Bus, Motor, and Mission.

OBJECT C, 60237 is a satellite in LEO that was launched on Tue, 09 Jul 2024 UTC via an ARIANE 62 launch vehicle from the French Guiana (FRGUI). Unknown objects in Earth's orbit typically refer to objects detected orbiting the Earth but have not yet been identified or cataloged. These objects could be anything from previously untracked satellites, spent rocket stages, debris from satellite collisions, or even natural meteoroids temporarily captured by Earth's gravity.

Loading next visibility...
Identifier
60237, 2024-128C
Orbit
LEO
Last TLE update
8 hours ago
Origin
Manufacturer
TUKE/KONK
Mission
Operational Amateur Astronomy
Bus & Motor
CUBESAT 2U, Unknown motor
Mass
2 kg wet, 2 kg dry
Launch date (UTC)
2024-07-09 (10 months ago)
Launch vehicle
ARIANE 62
Launch site
French Guiana (FRGUI)
Object type
Unknown
Shape & HBR
Box, 0.2 m
Radar Cross Section
0.025 m², Small (<0.1 m²)

Expand to show TLE details & history

TLE from 8 hours ago
0 OBJECT C
1 60237U 24128C   25129.52312980  .00003367  00000-0  26251-3 0  9992
2 60237  61.9911 187.8183 0049338  50.4222 310.1210 15.02355088 45537
Epoch: 2025-05-09T12:33Z
Definitive object data (Epoch: 2025-05-09T12:33:18.414Z)
Latitude
-0.00008°
Longitude
131.91348°
Altitude
539.447 km
Speed
7.605 km/s
True Right ascension
12h 31m 16s
True Declination
0° 00' 00"
Sunlit
Object was in full shadow at TLE epoch
Visualization TLE readout
Latitude
-2.72228°
Longitude
129.31473°
Altitude
541.324 km
Speed
7.603 km/s
Apparent Right ascension
14h 06m 50s
Apparent Declination
-23° 45' 09"
Sunlit
Object is in full shadow
Visualization observer readout
Local Sidereal Time
04:42:51
Azimuth
75.641° E
Elevation
-53.513°
Doppler factor
1
Orbital elements
Apogee altitude
592.791 km
Perigee altitude
524.342 km
Semi-major axis
6,936.704 km
Eccentricity
0.0049338
Inclination
61.9911°
RAAN
187.8183°
Arg. of periapsis
50.4222°
True anomaly
309.68695°
Mean anomaly
310.121°
Eccentric anomaly
309.90415°
Mean motion
3.75676 °/min
BSTAR
0.00026251
Orbital period
95.83 mins
Loading maneuver chart data...
Loading SW <> Apogee altitude chart data...
Loading historical data...
Loading historical data...
Loading historical data...
Loading historical data...
Loading historical data...
Loading historical data...
Loading historical data...

OBJECT C Visibility forecast

Observer location: undefined°, undefined°

Span
Click to sort rows by Start time (UTC) header in descending order
Start Az.
Max El. time (UTC)
Max El. Az.
Max El.
End time (UTC)
End Az.
5 mins2025-05-10 06:18:42.612Z248.292° W2025-05-10 06:20:42.612Z311.337° NW36.029°2025-05-10 06:23:42.612Z20.96° NNE
4 mins2025-05-10 13:01:42.612Z6.518° NNE2025-05-10 13:03:42.612Z43.011° NE18.617°2025-05-10 13:05:42.612Z78.443° E
6 mins2025-05-10 14:40:42.612Z299.973° NW2025-05-10 14:42:42.612Z240.716° WSW36.373°2025-05-10 14:46:42.612Z164.921° S
|